User: anonymous   Login
Location: Aulnoy
(48.8410°N, 3.0967°E)
Time: 23:15:02
(UTC+00:00)
Language:

Okean O Rocket - Orbit

View from above orbital plane
View from above orbital plane
View from above satellite
View from above satellite

Ground track
Ground track

The orbit data is extracted from the following two-line orbital elements,

1 25861U 99039B   24151.72043255  .00001082  00000-0  14966-3 0  9993
2 25861  98.0895 197.5569 0015023 190.5176 169.5723 14.80083301341082
Epoch (UTC): 30 May 2024 17:17:25
Eccentricity: 0.0015023
inclination: 98.0895°
perigee height: 618 km
apogee height: 639 km
right ascension of ascending node: 197.5569°
argument of perigee: 190.5176°
revolutions per day: 14.80083301
mean anomaly at epoch: 169.5723°
orbit number at epoch: 34108

The dashed part of the orbit path shows where the satellite is in the earth's shadow,  

DLR